SL-14 DEB

Satellite information

Favourite Embed

Satellite Type and Status

DEBRISIN ORBIT

Key statistics

Satellite SL-14 DEB at a glance.

Uptime

14081

Days in orbit

Revolutions

≈ 14.1

Per day

Orbit

LEO

Low Earth Orbit

Inclination

82.5

Latest

Satellite identification and parameters

Extended collection of information and parameters for SL-14 DEB.

Object identification

Identified? True

Debris? True

Object name: SL-14 DEB

International designator: 1986-101H

Object number (NORAD): 17273

Object ID (CCSDS): 17273

Country: COMMONWEALTH OF INDEPENDENT STATES (CIS)

Current information (Y/N): Y

RCS size: SMALL

Orbital parameters

Period: 101.994 minutes

Inclination: 82.5413 deg

SMA: 7231.211 km

Apoapsis: 871.023 km

Periapsis: 835.129 km

RAAN: 246.1247 deg

Eccentricy: 0.0024819

Argument of periapsis: 135.4995 deg

Mean anomaly: 350.0713 deg

Mean motion: 14.11842303 rev/day

Mean motion (dot): 0.00000709 rev/day2

B* drag term: 0.00037871 1/REarth

Two-line elements (TLE)

Creation date: July 6, 2025, 10:56 p.m.

Reference frame: TEME

Reference center: EARTH

Epoch: July 6, 2025, 9:29 p.m. UTC

TLE line 0: 0 SL-14 DEB

TLE line 1: 1 17273U 86101H 25187.89545229 .00000709 00000-0 37871-3 0 9998

TLE line 2: 2 17273 82.5413 246.1247 0024819 135.4995 350.0713 14.11842303971071

Live tracking on map

Real-time ground track for satellite SL-14 DEB.

In-orbit conjunctions

A list of the most updated potential collisions computed for object SL-14 DEB.

Target Orbit TCA Probability of collision Miss distance Type
CZ-6A DEB LEO 2025-01-18 00:26:42 0.0007610443 628.0 (m) DEBRIS
FENGYUN 1C DEB SSO 2024-09-28 07:43:55 0.000145371 143.0 (m) DEBRIS
FENGYUN 1C DEB SSO 2024-09-19 08:21:04 0.0003741962 64.0 (m) DEBRIS
FENGYUN 1C DEB SSO 2024-07-13 12:23:24 0.0003877845 47.0 (m) DEBRIS

Associated space launch

Ionospheric research satellite

SL-14 DEB was lifted into orbit during the mission ‘Tsiklon-3 | Ionozond-E’, on board a Tsiklon-3 space rocket.

The launch took place on Dec. 18, 1986, 8 a.m. from 32/2.

For more information about the launch, click the button.

Launch to space Tsiklon-3 | Ionozond-E
Tsiklon-3 | Ionozond-E

Agency: N/A

Status: Launch Successful

Launch date: Dec. 18, 1986, 8 a.m. UTC

Rocket: Tsiklon-3

Launch pad: 32/2

Location: Plesetsk Cosmodrome, Russian Federation

...

Latest news about this satellite

There are no fresh news available about this satellite. Check back as we update our databases every day.


Newsletter sign-up

Weekly statistics, charts and insights to help you stay on top of the space industry.